Weather Roundup
Issued by NWS Springfield, MO

Home | Current Version | Previous Version | Text Only | Print | Product List | Glossary On
Versions: 1 2 3 4 5 6 7 8 9 10 11 12 13 14 15 16 17 18 19 20 21 22 23 24 25 26 27 28 29 30 31 32 33 34 35 36 37 38 39 40 41 42 43 44 45 46 47 48 49 50
000
NZUS99 KSGF 272307
HRRSGF

HOURLY WEATHER
NATIONAL WEATHER SERVICE SPRINGFIELD MO
600 PM CDT TUE JUN 27 2017

......SGF CWA......

CITY           SKY/WX    TMP DP  RH WIND       PRES   REMARKS
SPRINGFIELD    MOSUNNY   81  63  54 S13       30.00F
JOPLIN         MOSUNNY   85  66  53 S12       29.97F
WEST PLAINS    MOSUNNY   79  62  56 SE7       30.06F
ROLLA          MOSUNNY   80  61  52 SE8       30.02F
OSAGE BEACH    MOSUNNY   79  64  60 SE8       30.01F
BRANSON        PTSUNNY   82  63  51 SE12      30.04F

......SURROUNDING SGF CWA......

CITY           SKY/WX    TMP DP  RH WIND       PRES   REMARKS
CHANUTE        SUNNY     86  63  45 S17G23    29.94F
PARSONS        SUNNY     85  64  49 S13G18    29.94F
COFFEYVILLE    SUNNY     87  62  43 S16       29.93F
EMPORIA        SUNNY     83  67  58 SE20G28   29.89F
GROVE OK       SUNNY     86  64  48 SE10G16   29.97F
ROGERS AR      MOSUNNY   83  63  50 SE12      30.01F
SILOAM SPRINGS SUNNY     84  59  42 S12       29.99F
HARRISON AR    MOSUNNY   81  63  54 SE14      30.03F
NEAR YELLVILLE MOSUNNY   81  61  50 SE6       30.00F

......KANSAS AND MISSOURI......

CITY           SKY/WX    TMP DP  RH WIND       PRES   REMARKS
KANSAS CTY INT PTSUNNY   78  66  66 S13       29.93F
DOWNTOWN KC    CLOUDY    83  65  54 S15G21    29.92F
COLUMBIA       SUNNY     79  60  52 SE9       30.00F
SEDALIA        MOSUNNY   79  67  66 SE8       29.99F
ST JOSEPH      CLOUDY    79  66  64 S14       29.91F
ST LOUIS       MOSUNNY   82  48  30 S6        30.04F
SPIRIT OF STL  MOSUNNY   81  49  32 S3        30.02F
KIRKSVILLE     SUNNY     79  54  41 SE12      29.99F
WICHITA        MOSUNNY   89  68  49 SE25G32   29.85F HX  93
TOPEKA         MOSUNNY   80  69  69 SE18G25   29.90F
OLATHE         MOSUNNY   79  66  64 S16G23    29.95F

......TENNESSEE......

CITY           SKY/WX    TMP DP  RH WIND       PRES   REMARKS
MEMPHIS        MOSUNNY   83  61  47 CALM      30.03F
NASHVILLE      MOSUNNY   81  54  39 E7        30.07F

......ARKANSAS.......

CITY           SKY/WX    TMP DP  RH WIND       PRES   REMARKS
FAYETTEVILLE   SUNNY     81  61  50 SE8       30.01F
FT SMITH       MOSUNNY   87  65  47 E9        29.97F
LITTLE ROCK    PTSUNNY   82  63  52 S7        30.02F

......OKLAHOMA.......

CITY           SKY/WX    TMP DP  RH WIND       PRES   REMARKS
TULSA          MOSUNNY   89  66  46 S14       29.92F HX  91
PONCA CITY     SUNNY     90  65  43 S21       29.88F HX  92
MCALESTER      MOSUNNY   88  68  51 SE7       29.96F HX  91
OKLAHOMA CITY  MOSUNNY   91  61  36 S15G22    29.91F HX  91

......IOWA............

CITY           SKY/WX    TMP DP  RH WIND       PRES   REMARKS
DES MOINES     MOSUNNY   80  52  37 SE15      29.92F
QUAD CITIES    SUNNY     75  45  34 S8        30.01F

......ILLINOIS........

CITY           SKY/WX    TMP DP  RH WIND       PRES   REMARKS
QUINCY         SUNNY     78  52  40 S8        30.02F
CHICAGO        PTSUNNY   76  43  30 W9        30.03F



USA.gov is the U.S. government's official web portal to all federal, state and local government web resources and services.